Time,TemperatureF,DewpointF,PressureIn,WindDirection,WindDirectionDegrees,WindSpeedMPH,WindSpeedGustMPH,Humidity,HourlyPrecipIn,Conditions,Clouds,dailyrainin,SoftwareType,DateUTC
2013-04-03 00:03:00,38.9,27.3,30.25,ENE,73,3.0,6.0,63,0.00,RA,RA,0.00,WeatherDisplay:10.37,2013-04-03 05:03:00,
2013-04-03 00:09:00,38.7,27.1,30.25,East,84,5.0,7.0,63,0.00,RA,RA,0.00,WeatherDisplay:10.37,2013-04-03 05:09:00,
2013-04-03 00:15:00,38.5,27.7,30.23,East,81,3.0,7.0,65,0.00,OVC,OVC,0.00,WeatherDisplay:10.37,2013-04-03 05:15:00,
2013-04-03 00:21:00,38.2,27.5,30.23,ENE,69,2.0,5.0,65,0.00,OVC,OVC,0.00,WeatherDisplay:10.37,2013-04-03 05:21:00,
2013-04-03 00:27:00,38.1,27.4,30.23,NE,55,3.0,6.0,65,0.00,OVC,OVC,0.00,WeatherDisplay:10.37,2013-04-03 05:27:00,
2013-04-03 00:33:00,38.0,27.2,30.23,ENE,73,2.0,7.0,65,0.00,OVC,OVC,0.00,WeatherDisplay:10.37,2013-04-03 05:33:00,
2013-04-03 00:39:00,37.8,27.4,30.22,East,84,3.0,4.0,66,0.00,OVC,OVC,0.00,WeatherDisplay:10.37,2013-04-03 05:39:00,
2013-04-03 00:45:00,37.8,27.4,30.22,NNE,22,2.0,7.0,66,0.00,OVC,OVC,0.00,WeatherDisplay:10.37,2013-04-03 05:45:00,
2013-04-03 00:51:00,37.8,27.8,30.24,North,7,1.0,4.0,67,0.00,OVC,OVC,0.00,WeatherDisplay:10.37,2013-04-03 05:51:00,
2013-04-03 00:57:00,37.6,27.6,30.24,NNE,32,2.0,6.0,67,0.00,OVC,OVC,0.00,WeatherDisplay:10.37,2013-04-03 05:57:00,
2013-04-03 01:03:00,37.6,27.6,30.23,ENE,58,2.0,4.0,67,0.00,OVC,OVC,0.00,WeatherDisplay:10.37,2013-04-03 06:03:00,
2013-04-03 01:09:00,37.6,27.6,30.23,ENE,67,0.0,0.0,67,0.00,OVC,OVC,0.00,WeatherDisplay:10.37,2013-04-03 06:09:00,
2013-04-03 01:15:00,37.6,27.6,30.25,East,80,0.0,0.0,67,0.00,OVC,OVC,0.00,WeatherDisplay:10.37,2013-04-03 06:15:00,
2013-04-03 01:21:00,37.6,27.6,30.25,NE,48,0.0,0.0,67,0.00,OVC,OVC,0.00,WeatherDisplay:10.37,2013-04-03 06:21:00,
2013-04-03 01:27:00,37.7,28.1,30.25,North,360,0.0,0.0,68,0.00,OVC,OVC,0.00,WeatherDisplay:10.37,2013-04-03 06:27:00,
2013-04-03 01:33:00,37.8,28.1,30.25,North,360,0.0,0.0,68,0.00,OVC,OVC,0.00,WeatherDisplay:10.37,2013-04-03 06:33:00,
2013-04-03 01:39:00,37.8,28.5,30.25,NNE,28,1.0,2.0,69,0.00,OVC,OVC,0.00,WeatherDisplay:10.37,2013-04-03 06:39:00,
2013-04-03 01:45:00,37.8,28.5,30.25,East,91,1.0,4.0,69,0.00,OVC,OVC,0.00,WeatherDisplay:10.37,2013-04-03 06:45:00,
2013-04-03 01:54:00,37.8,28.5,30.25,North,2,2.0,6.0,69,0.00,OVC,OVC,0.00,WeatherDisplay:10.37,2013-04-03 06:54:00,
2013-04-03 02:00:00,38.0,28.3,30.25,ENE,59,5.0,6.0,68,0.00,OVC,OVC,0.00,WeatherDisplay:10.37,2013-04-03 07:00:00,
2013-04-03 02:06:00,38.0,28.3,30.25,North,7,1.0,4.0,68,0.00,OVC,OVC,0.00,WeatherDisplay:10.37,2013-04-03 07:06:00,
2013-04-03 02:12:00,38.0,28.3,30.26,NNW,341,2.0,4.0,68,0.00,OVC,OVC,0.00,WeatherDisplay:10.37,2013-04-03 07:12:00,
2013-04-03 02:18:00,38.0,28.3,30.26,NNW,338,1.0,2.0,68,0.00,OVC,OVC,0.00,WeatherDisplay:10.37,2013-04-03 07:18:00,
2013-04-03 02:24:00,38.0,28.3,30.26,NNE,12,0.0,2.0,68,0.00,OVC,OVC,0.00,WeatherDisplay:10.37,2013-04-03 07:24:00,
2013-04-03 02:30:00,38.0,28.7,30.26,North,360,1.0,4.0,69,0.00,OVC,OVC,0.00,WeatherDisplay:10.37,2013-04-03 07:30:00,
2013-04-03 02:36:00,38.0,28.7,30.26,North,360,0.0,2.0,69,0.00,OVC,OVC,0.00,WeatherDisplay:10.37,2013-04-03 07:36:00,
2013-04-03 02:42:00,38.0,29.0,30.25,North,360,1.0,3.0,70,0.00,OVC,OVC,0.00,WeatherDisplay:10.37,2013-04-03 07:42:00,
2013-04-03 02:48:00,38.2,28.9,30.25,NNE,20,1.0,4.0,69,0.00,OVC,OVC,0.00,WeatherDisplay:10.37,2013-04-03 07:48:00,
2013-04-03 02:54:00,38.2,28.9,30.25,North,7,2.0,6.0,69,0.00,OVC,OVC,0.00,WeatherDisplay:10.37,2013-04-03 07:54:00,
2013-04-03 03:00:00,38.2,28.9,30.25,NNW,345,2.0,3.0,69,0.00,OVC,OVC,0.00,WeatherDisplay:10.37,2013-04-03 08:00:00,
2013-04-03 03:06:00,38.2,28.9,30.25,NNW,348,1.0,5.0,69,0.00,OVC,OVC,0.00,WeatherDisplay:10.37,2013-04-03 08:06:00,
2013-04-03 03:12:00,38.2,29.2,30.25,North,7,1.0,2.0,70,0.00,OVC,OVC,0.00,WeatherDisplay:10.37,2013-04-03 08:12:00,
2013-04-03 03:18:00,38.2,28.9,30.25,NNE,18,0.0,3.0,69,0.00,OVC,OVC,0.00,WeatherDisplay:10.37,2013-04-03 08:18:00,
2013-04-03 03:24:00,38.2,29.2,30.25,NE,48,3.0,4.0,70,0.00,OVC,OVC,0.00,WeatherDisplay:10.37,2013-04-03 08:24:00,
2013-04-03 03:30:00,38.2,29.6,30.24,NNE,21,0.0,3.0,71,0.00,OVC,OVC,0.00,WeatherDisplay:10.37,2013-04-03 08:30:00,
2013-04-03 03:36:00,38.2,29.9,30.25,NNW,337,1.0,5.0,72,0.00,OVC,OVC,0.00,WeatherDisplay:10.37,2013-04-03 08:36:00,
2013-04-03 03:42:00,38.2,29.9,30.25,North,355,0.0,5.0,72,0.00,OVC,OVC,0.00,WeatherDisplay:10.37,2013-04-03 08:42:00,
2013-04-03 03:48:00,38.0,29.7,30.25,NNE,19,1.0,4.0,72,0.00,OVC,OVC,0.00,WeatherDisplay:10.37,2013-04-03 08:48:00,
2013-04-03 03:54:00,38.0,29.7,30.24,NNE,19,2.0,2.0,72,0.00,OVC,OVC,0.00,WeatherDisplay:10.37,2013-04-03 08:54:00,
2013-04-03 04:00:00,38.0,29.7,30.24,North,349,0.0,2.0,72,0.00,OVC,OVC,0.00,WeatherDisplay:10.37,2013-04-03 09:00:00,
2013-04-03 04:06:00,38.0,29.7,30.24,North,358,2.0,4.0,72,0.00,OVC,OVC,0.00,WeatherDisplay:10.37,2013-04-03 09:06:00,
2013-04-03 04:12:00,38.0,29.7,30.24,North,356,0.0,0.0,72,0.00,OVC,OVC,0.00,WeatherDisplay:10.37,2013-04-03 09:12:00,
2013-04-03 04:18:00,38.0,29.7,30.24,ENE,58,3.0,5.0,72,0.00,OVC,OVC,0.00,WeatherDisplay:10.37,2013-04-03 09:18:00,
2013-04-03 04:24:00,38.2,29.9,30.24,East,92,5.0,7.0,72,0.00,OVC,OVC,0.00,WeatherDisplay:10.37,2013-04-03 09:24:00,
2013-04-03 04:30:00,38.2,29.6,30.23,NE,55,2.0,5.0,71,0.00,OVC,OVC,0.00,WeatherDisplay:10.37,2013-04-03 09:30:00,
2013-04-03 04:36:00,38.2,29.6,30.23,ENE,67,7.0,10.0,71,0.00,OVC,OVC,0.00,WeatherDisplay:10.37,2013-04-03 09:36:00,
2013-04-03 04:42:00,38.3,29.3,30.23,East,83,5.0,7.0,70,0.00,OVC,OVC,0.00,WeatherDisplay:10.37,2013-04-03 09:42:00,
2013-04-03 04:48:00,38.3,29.3,30.23,East,79,5.0,10.0,70,0.00,OVC,OVC,0.00,WeatherDisplay:10.37,2013-04-03 09:48:00,
2013-04-03 04:54:00,38.3,29.3,30.23,East,80,3.0,6.0,70,0.00,OVC,OVC,0.00,WeatherDisplay:10.37,2013-04-03 09:54:00,
2013-04-03 05:00:00,38.3,29.3,30.23,East,89,3.0,6.0,70,0.00,OVC,OVC,0.00,WeatherDisplay:10.37,2013-04-03 10:00:00,
2013-04-03 05:06:00,38.3,29.3,30.23,East,93,5.0,7.0,70,0.00,OVC,OVC,0.00,WeatherDisplay:10.37,2013-04-03 10:06:00,
2013-04-03 05:12:00,38.5,28.8,30.23,East,90,6.0,12.0,68,0.00,OVC,OVC,0.00,WeatherDisplay:10.37,2013-04-03 10:12:00,
2013-04-03 05:18:00,38.7,27.9,30.23,East,89,7.0,12.0,65,0.00,OVC,OVC,0.00,WeatherDisplay:10.37,2013-04-03 10:18:00,
2013-04-03 05:24:00,38.9,27.7,30.23,East,91,5.0,9.0,64,0.00,OVC,OVC,0.00,WeatherDisplay:10.37,2013-04-03 10:24:00,
2013-04-03 05:30:00,38.9,28.1,30.23,East,88,2.0,9.0,65,0.00,OVC,OVC,0.00,WeatherDisplay:10.37,2013-04-03 10:30:00,
2013-04-03 05:36:00,38.9,27.3,30.23,East,93,7.0,9.0,63,0.00,OVC,OVC,0.00,WeatherDisplay:10.37,2013-04-03 10:36:00,
2013-04-03 05:42:00,38.9,27.3,30.23,East,80,6.0,9.0,63,0.00,OVC,OVC,0.00,WeatherDisplay:10.37,2013-04-03 10:42:00,
2013-04-03 05:48:00,38.9,27.7,30.23,East,85,6.0,9.0,64,0.00,OVC,OVC,0.00,WeatherDisplay:10.37,2013-04-03 10:48:00,
2013-04-03 05:54:00,38.9,27.7,30.23,East,86,6.0,8.0,64,0.00,OVC,OVC,0.00,WeatherDisplay:10.37,2013-04-03 10:54:00,
2013-04-03 06:00:00,38.9,28.1,30.23,East,81,5.0,7.0,65,0.00,OVC,OVC,0.00,WeatherDisplay:10.37,2013-04-03 11:00:00,
2013-04-03 06:06:00,38.7,27.9,30.23,East,93,5.0,7.0,65,0.00,OVC,OVC,0.00,WeatherDisplay:10.37,2013-04-03 11:06:00,
2013-04-03 06:12:00,38.7,27.9,30.23,ENE,77,5.0,8.0,65,0.00,OVC,OVC,0.00,WeatherDisplay:10.37,2013-04-03 11:12:00,
2013-04-03 06:18:00,38.7,27.9,30.23,ENE,66,6.0,7.0,65,0.00,OVC,OVC,0.00,WeatherDisplay:10.37,2013-04-03 11:18:00,
2013-04-03 06:24:00,38.7,27.9,30.23,ENE,61,7.0,8.0,65,0.00,OVC,OVC,0.00,WeatherDisplay:10.37,2013-04-03 11:24:00,
2013-04-03 06:30:00,38.5,27.7,30.24,ENE,74,6.0,10.0,65,0.00,OVC,OVC,0.00,WeatherDisplay:10.37,2013-04-03 11:30:00,
2013-04-03 06:36:00,38.5,28.1,30.24,East,81,3.0,12.0,66,0.00,OVC,OVC,0.00,WeatherDisplay:10.37,2013-04-03 11:36:00,
2013-04-03 06:42:00,38.5,28.1,30.23,ENE,73,5.0,7.0,66,0.00,OVC,OVC,0.00,WeatherDisplay:10.37,2013-04-03 11:42:00,
2013-04-03 06:48:00,38.5,28.1,30.24,East,80,5.0,8.0,66,0.00,OVC,OVC,0.00,WeatherDisplay:10.37,2013-04-03 11:48:00,
2013-04-03 06:54:00,38.3,27.9,30.24,East,86,6.0,7.0,66,0.00,OVC,OVC,0.00,WeatherDisplay:10.37,2013-04-03 11:54:00,
2013-04-03 07:00:00,38.3,27.9,30.24,East,84,5.0,6.0,66,0.00,OVC,OVC,0.00,WeatherDisplay:10.37,2013-04-03 12:00:00,
2013-04-03 07:06:00,38.3,27.9,30.24,East,82,7.0,9.0,66,0.00,OVC,OVC,0.00,WeatherDisplay:10.37,2013-04-03 12:06:00,
2013-04-03 07:15:00,38.3,27.9,30.25,East,86,8.0,10.0,66,0.00,OVC,OVC,0.00,WeatherDisplay:10.37,2013-04-03 12:15:00,
2013-04-03 07:21:00,38.3,27.9,30.25,ENE,72,5.0,9.0,66,0.00,OVC,OVC,0.00,WeatherDisplay:10.37,2013-04-03 12:21:00,
2013-04-03 07:27:00,38.3,27.9,30.25,ENE,59,7.0,9.0,66,0.00,OVC,OVC,0.00,WeatherDisplay:10.37,2013-04-03 12:27:00,
2013-04-03 07:33:00,38.3,27.9,30.25,ENE,75,5.0,7.0,66,0.00,OVC,OVC,0.00,WeatherDisplay:10.37,2013-04-03 12:33:00,
2013-04-03 07:39:00,38.3,27.9,30.26,East,80,7.0,9.0,66,0.00,OVC,OVC,0.00,WeatherDisplay:10.37,2013-04-03 12:39:00,
2013-04-03 07:45:00,38.3,27.5,30.26,ENE,77,8.0,12.0,65,0.00,OVC,OVC,0.00,WeatherDisplay:10.37,2013-04-03 12:45:00,
2013-04-03 07:51:00,38.3,27.9,30.26,ENE,76,5.0,7.0,66,0.00,OVC,OVC,0.00,WeatherDisplay:10.37,2013-04-03 12:51:00,
2013-04-03 07:57:00,38.3,27.1,30.26,East,82,5.0,8.0,64,0.00,OVC,OVC,0.00,WeatherDisplay:10.37,2013-04-03 12:57:00,
2013-04-03 08:03:00,38.3,26.8,30.27,East,86,8.0,10.0,63,0.00,OVC,OVC,0.00,WeatherDisplay:10.37,2013-04-03 13:03:00,
2013-04-03 08:09:00,38.5,25.8,30.27,ENE,61,8.0,10.0,60,0.00,OVC,OVC,0.00,WeatherDisplay:10.37,2013-04-03 13:09:00,
2013-04-03 08:15:00,38.5,25.8,30.27,ENE,71,6.0,9.0,60,0.00,OVC,OVC,0.00,WeatherDisplay:10.37,2013-04-03 13:15:00,
2013-04-03 08:21:00,38.7,25.6,30.27,East,88,6.0,7.0,59,0.00,OVC,OVC,0.00,WeatherDisplay:10.37,2013-04-03 13:21:00,
2013-04-03 08:27:00,38.7,25.1,30.28,East,86,6.0,8.0,58,0.00,OVC,OVC,0.00,WeatherDisplay:10.37,2013-04-03 13:27:00,
2013-04-03 08:33:00,38.7,25.1,30.28,East,89,8.0,8.0,58,0.00,OVC,OVC,0.00,WeatherDisplay:10.37,2013-04-03 13:33:00,
2013-04-03 08:39:00,38.9,24.5,30.29,East,90,5.0,9.0,56,0.00,OVC,OVC,0.00,WeatherDisplay:10.37,2013-04-03 13:39:00,
2013-04-03 08:45:00,38.9,24.5,30.29,East,84,6.0,9.0,56,0.00,OVC,OVC,0.00,WeatherDisplay:10.37,2013-04-03 13:45:00,
2013-04-03 08:51:00,38.9,24.5,30.30,East,99,6.0,8.0,56,0.00,OVC,OVC,0.00,WeatherDisplay:10.37,2013-04-03 13:51:00,
2013-04-03 08:57:00,38.9,24.9,30.30,East,93,6.0,9.0,57,0.00,OVC,OVC,0.00,WeatherDisplay:10.37,2013-04-03 13:57:00,
2013-04-03 09:03:00,38.6,27.4,30.30,East,87,7.0,9.0,64,0.00,OVC,OVC,0.00,WeatherDisplay:10.37,2013-04-03 14:03:00,
2013-04-03 09:09:00,38.2,30.3,30.30,ENE,67,3.0,7.0,73,0.00,OVC,OVC,0.00,WeatherDisplay:10.37,2013-04-03 14:09:00,
2013-04-03 09:15:00,37.6,29.7,30.30,NE,50,5.0,7.0,73,0.00,OVC,OVC,0.00,WeatherDisplay:10.37,2013-04-03 14:15:00,
2013-04-03 09:21:00,37.4,29.5,30.30,ENE,76,5.0,7.0,73,0.00,OVC,OVC,0.00,WeatherDisplay:10.37,2013-04-03 14:21:00,
2013-04-03 09:27:00,37.4,28.8,30.29,East,81,6.0,8.0,71,0.00,OVC,OVC,0.00,WeatherDisplay:10.37,2013-04-03 14:27:00,
2013-04-03 09:33:00,37.6,28.0,30.29,ENE,76,6.0,9.0,68,0.00,OVC,OVC,0.00,WeatherDisplay:10.37,2013-04-03 14:33:00,
2013-04-03 09:39:00,37.8,27.4,30.29,East,81,6.0,14.0,66,0.00,OVC,OVC,0.00,WeatherDisplay:10.37,2013-04-03 14:39:00,
2013-04-03 09:45:00,38.0,27.2,30.29,East,88,6.0,8.0,65,0.00,OVC,OVC,0.00,WeatherDisplay:10.37,2013-04-03 14:45:00,
2013-04-03 09:51:00,38.2,27.0,30.29,ENE,72,3.0,6.0,64,0.00,OVC,OVC,0.00,WeatherDisplay:10.37,2013-04-03 14:51:00,
2013-04-03 09:57:00,38.2,27.0,30.29,ENE,67,6.0,7.0,64,0.00,OVC,OVC,0.00,WeatherDisplay:10.37,2013-04-03 14:57:00,
2013-04-03 10:03:00,38.2,26.3,30.29,East,82,6.0,7.0,62,0.00,OVC,OVC,0.00,WeatherDisplay:10.37,2013-04-03 15:03:00,
2013-04-03 10:09:00,38.3,25.6,30.29,East,83,6.0,8.0,60,0.00,OVC,OVC,0.00,WeatherDisplay:10.37,2013-04-03 15:09:00,
2013-04-03 10:15:00,38.5,25.4,30.29,East,82,5.0,7.0,59,0.00,OVC,OVC,0.00,WeatherDisplay:10.37,2013-04-03 15:15:00,
2013-04-03 10:21:00,38.5,25.4,30.29,ESE,107,7.0,7.0,59,0.00,OVC,OVC,0.00,WeatherDisplay:10.37,2013-04-03 15:21:00,
2013-04-03 10:27:00,38.9,25.7,30.31,SE,130,3.0,6.0,59,0.00,OVC,OVC,0.00,WeatherDisplay:10.37,2013-04-03 15:27:00,
2013-04-03 10:33:00,38.4,26.9,30.31,ESE,119,6.0,9.0,63,0.00,OVC,OVC,0.00,WeatherDisplay:10.37,2013-04-03 15:33:00,
2013-04-03 10:39:00,38.0,27.2,30.31,East,95,8.0,12.0,65,0.00,OVC,OVC,0.00,WeatherDisplay:10.37,2013-04-03 15:39:00,
2013-04-03 10:45:00,36.9,28.7,30.31,East,90,6.0,8.0,72,0.00,OVC,OVC,0.00,WeatherDisplay:10.37,2013-04-03 15:45:00,
2013-04-03 10:51:00,36.9,29.0,30.31,East,91,3.0,6.0,73,0.00,OVC,OVC,0.00,WeatherDisplay:10.37,2013-04-03 15:51:00,
2013-04-03 10:57:00,36.9,28.3,30.31,East,89,7.0,9.0,71,0.00,OVC,OVC,0.00,WeatherDisplay:10.37,2013-04-03 15:57:00,
2013-04-03 11:03:00,37.3,28.4,30.32,East,89,9.0,13.0,70,0.00,-SN,-SN,0.00,WeatherDisplay:10.37,2013-04-03 16:03:00,
2013-04-03 11:09:00,37.4,28.8,30.32,ENE,60,3.0,10.0,71,0.00,-SN,-SN,0.00,WeatherDisplay:10.37,2013-04-03 16:09:00,
2013-04-03 11:15:00,37.9,29.0,30.31,NE,36,3.0,6.0,70,0.00,-SN,-SN,0.00,WeatherDisplay:10.37,2013-04-03 16:15:00,
2013-04-03 11:21:00,38.3,28.6,30.31,NE,51,6.0,7.0,68,0.00,-SN,-SN,0.00,WeatherDisplay:10.37,2013-04-03 16:21:00,
2013-04-03 11:27:00,39.0,29.3,30.31,ENE,76,3.0,6.0,68,0.00,-SN,-SN,0.00,WeatherDisplay:10.37,2013-04-03 16:27:00,
2013-04-03 11:33:00,39.4,29.3,30.31,East,83,3.0,6.0,67,0.00,-SN,-SN,0.00,WeatherDisplay:10.37,2013-04-03 16:33:00,
2013-04-03 11:39:00,39.8,30.5,30.32,North,8,5.0,7.0,69,0.00,-SN,-SN,0.00,WeatherDisplay:10.37,2013-04-03 16:39:00,
2013-04-03 11:45:00,40.0,31.0,30.32,North,359,3.0,5.0,70,0.00,-SN,-SN,0.00,WeatherDisplay:10.37,2013-04-03 16:45:00,
2013-04-03 11:51:00,40.3,31.3,30.31,NE,43,2.0,6.0,70,0.00,-SN,-SN,0.00,WeatherDisplay:10.37,2013-04-03 16:51:00,
2013-04-03 11:57:00,40.6,30.2,30.31,ENE,65,5.0,7.0,66,0.00,-SN,-SN,0.00,WeatherDisplay:10.37,2013-04-03 16:57:00,
2013-04-03 12:03:00,41.1,29.5,30.30,East,83,3.0,8.0,63,0.00,OVC,OVC,0.00,WeatherDisplay:10.37,2013-04-03 17:03:00,
2013-04-03 12:09:00,41.8,28.1,30.30,ENE,76,6.0,10.0,58,0.00,OVC,OVC,0.00,WeatherDisplay:10.37,2013-04-03 17:09:00,
2013-04-03 12:15:00,41.8,26.3,30.31,East,93,7.0,9.0,54,0.00,OVC,OVC,0.00,WeatherDisplay:10.37,2013-04-03 17:15:00,
2013-04-03 12:21:00,41.8,25.4,30.31,East,101,9.0,13.0,52,0.00,OVC,OVC,0.00,WeatherDisplay:10.37,2013-04-03 17:21:00,
2013-04-03 12:27:00,41.6,27.4,30.31,ESE,114,7.0,17.0,57,0.00,OVC,OVC,0.00,WeatherDisplay:10.37,2013-04-03 17:27:00,
2013-04-03 12:33:00,39.7,31.0,30.31,SE,140,10.0,12.0,71,0.00,OVC,OVC,0.00,WeatherDisplay:10.37,2013-04-03 17:33:00,
2013-04-03 12:39:00,39.4,31.1,30.31,SSE,151,6.0,10.0,72,0.00,OVC,OVC,0.00,WeatherDisplay:10.37,2013-04-03 17:39:00,
2013-04-03 12:45:00,39.9,31.2,30.31,SE,143,9.0,12.0,71,0.00,OVC,OVC,0.00,WeatherDisplay:10.37,2013-04-03 17:45:00,
2013-04-03 12:51:00,39.1,31.2,30.32,SE,135,7.0,9.0,73,0.00,OVC,OVC,0.00,WeatherDisplay:10.37,2013-04-03 17:51:00,
2013-04-03 12:57:00,39.1,31.1,30.32,SE,140,6.0,8.0,73,0.00,OVC,OVC,0.00,WeatherDisplay:10.37,2013-04-03 17:57:00,
2013-04-03 13:03:00,39.0,31.8,30.32,SE,144,7.0,9.0,75,0.00,OVC,OVC,0.00,WeatherDisplay:10.37,2013-04-03 18:03:00,
2013-04-03 13:09:00,38.9,32.3,30.32,SE,141,7.0,9.0,77,0.00,OVC,OVC,0.00,WeatherDisplay:10.37,2013-04-03 18:09:00,
2013-04-03 13:15:00,39.1,31.8,30.31,SE,138,7.0,9.0,75,0.00,OVC,OVC,0.00,WeatherDisplay:10.37,2013-04-03 18:15:00,
2013-04-03 13:21:00,39.1,32.5,30.31,ESE,118,7.0,10.0,77,0.00,OVC,OVC,0.00,WeatherDisplay:10.37,2013-04-03 18:21:00,
2013-04-03 13:27:00,39.1,32.1,30.31,ESE,107,6.0,9.0,76,0.00,OVC,OVC,0.00,WeatherDisplay:10.37,2013-04-03 18:27:00,
2013-04-03 13:33:00,39.1,32.9,30.31,ESE,102,5.0,7.0,78,0.00,OVC,OVC,0.00,WeatherDisplay:10.37,2013-04-03 18:33:00,
2013-04-03 13:39:00,39.1,31.8,30.30,ESE,104,9.0,13.0,75,0.00,OVC,OVC,0.00,WeatherDisplay:10.37,2013-04-03 18:39:00,
2013-04-03 13:45:00,38.9,31.0,30.30,East,91,8.0,10.0,73,0.00,OVC,OVC,0.00,WeatherDisplay:10.37,2013-04-03 18:45:00,
2013-04-03 13:51:00,39.1,31.2,30.30,ESE,105,8.0,12.0,73,0.00,OVC,OVC,0.00,WeatherDisplay:10.37,2013-04-03 18:51:00,
2013-04-03 13:57:00,39.1,31.2,30.30,East,97,5.0,9.0,73,0.00,OVC,OVC,0.00,WeatherDisplay:10.37,2013-04-03 18:57:00,
2013-04-03 14:03:00,39.2,31.2,30.30,ESE,104,5.0,12.0,73,0.00,OVC,OVC,0.00,WeatherDisplay:10.37,2013-04-03 19:03:00,
2013-04-03 14:09:00,38.9,31.6,30.30,East,99,7.0,9.0,75,0.00,OVC,OVC,0.00,WeatherDisplay:10.37,2013-04-03 19:09:00,
2013-04-03 14:15:00,39.4,32.1,30.29,East,100,3.0,6.0,75,0.00,OVC,OVC,0.00,WeatherDisplay:10.37,2013-04-03 19:15:00,
2013-04-03 14:21:00,39.2,31.9,30.29,East,82,8.0,9.0,75,0.00,OVC,OVC,0.00,WeatherDisplay:10.37,2013-04-03 19:21:00,
2013-04-03 14:27:00,39.1,32.5,30.29,ENE,75,6.0,12.0,77,0.00,OVC,OVC,0.00,WeatherDisplay:10.37,2013-04-03 19:27:00,
2013-04-03 14:33:00,39.0,32.4,30.29,East,87,7.0,10.0,77,0.00,OVC,OVC,0.00,WeatherDisplay:10.37,2013-04-03 19:33:00,
2013-04-03 14:39:00,38.6,33.0,30.29,East,85,7.0,12.0,80,0.00,OVC,OVC,0.00,WeatherDisplay:10.37,2013-04-03 19:39:00,
2013-04-03 14:45:00,38.7,33.0,30.29,ENE,74,9.0,14.0,80,0.00,OVC,OVC,0.00,WeatherDisplay:10.37,2013-04-03 19:45:00,
2013-04-03 14:51:00,39.2,33.5,30.28,East,83,7.0,9.0,80,0.00,OVC,OVC,0.00,WeatherDisplay:10.37,2013-04-03 19:51:00,
2013-04-03 14:57:00,38.9,34.1,30.28,East,82,6.0,12.0,83,0.00,OVC,OVC,0.00,WeatherDisplay:10.37,2013-04-03 19:57:00,
2013-04-03 15:03:00,38.8,35.0,30.28,East,88,6.0,12.0,86,0.00,-RA,-RA,0.00,WeatherDisplay:10.37,2013-04-03 20:03:00,
2013-04-03 15:09:00,38.2,34.3,30.28,East,79,9.0,12.0,86,0.00,-RA,-RA,0.00,WeatherDisplay:10.37,2013-04-03 20:09:00,
2013-04-03 15:15:00,37.9,34.1,30.27,East,79,13.0,15.0,86,0.00,-RA,-RA,0.00,WeatherDisplay:10.37,2013-04-03 20:15:00,
2013-04-03 15:21:00,38.0,34.1,30.27,East,89,10.0,12.0,86,0.00,-RA,-RA,0.00,WeatherDisplay:10.37,2013-04-03 20:21:00,
2013-04-03 15:27:00,38.2,34.7,30.27,East,86,6.0,12.0,87,0.00,-RA,-RA,0.00,WeatherDisplay:10.37,2013-04-03 20:27:00,
2013-04-03 15:33:00,38.3,34.4,30.27,East,97,7.0,8.0,86,0.00,-RA,-RA,0.00,WeatherDisplay:10.37,2013-04-03 20:33:00,
2013-04-03 15:39:00,38.5,34.3,30.27,ESE,104,8.0,10.0,85,0.00,-RA,-RA,0.00,WeatherDisplay:10.37,2013-04-03 20:39:00,
2013-04-03 15:45:00,38.3,34.1,30.27,East,88,8.0,14.0,85,0.00,-RA,-RA,0.00,WeatherDisplay:10.37,2013-04-03 20:45:00,
2013-04-03 15:51:00,38.3,33.9,30.26,East,92,6.0,14.0,84,0.00,-RA,-RA,0.00,WeatherDisplay:10.37,2013-04-03 20:51:00,
2013-04-03 15:57:00,39.1,34.3,30.26,East,88,7.0,8.0,83,0.00,-RA,-RA,0.00,WeatherDisplay:10.37,2013-04-03 20:57:00,
2013-04-03 16:03:00,38.9,33.5,30.26,East,96,7.0,9.0,81,0.00,-RA,-RA,0.00,WeatherDisplay:10.37,2013-04-03 21:03:00,
2013-04-03 16:09:00,38.7,33.0,30.26,East,92,9.0,14.0,80,0.00,-RA,-RA,0.00,WeatherDisplay:10.37,2013-04-03 21:09:00,
2013-04-03 16:15:00,38.9,33.5,30.26,East,87,5.0,9.0,81,0.00,-RA,-RA,0.00,WeatherDisplay:10.37,2013-04-03 21:15:00,
2013-04-03 16:21:00,38.9,33.5,30.26,ENE,72,8.0,9.0,81,0.00,-RA,-RA,0.00,WeatherDisplay:10.37,2013-04-03 21:21:00,
2013-04-03 16:27:00,38.9,33.5,30.25,ENE,64,7.0,9.0,81,0.00,-RA,-RA,0.00,WeatherDisplay:10.37,2013-04-03 21:27:00,
2013-04-03 16:33:00,38.9,33.5,30.25,ENE,69,7.0,12.0,81,0.00,-RA,-RA,0.00,WeatherDisplay:10.37,2013-04-03 21:33:00,
2013-04-03 16:39:00,38.9,33.2,30.25,ENE,66,12.0,12.0,80,0.00,-RA,-RA,0.00,WeatherDisplay:10.37,2013-04-03 21:39:00,
2013-04-03 16:45:00,38.7,32.7,30.25,East,84,7.0,9.0,79,0.00,-RA,-RA,0.00,WeatherDisplay:10.37,2013-04-03 21:45:00,
2013-04-03 16:51:00,38.9,33.2,30.24,East,93,6.0,13.0,80,0.00,-RA,-RA,0.01,WeatherDisplay:10.37,2013-04-03 21:51:00,
2013-04-03 16:57:00,39.1,33.2,30.24,East,84,9.0,10.0,79,0.00,-RA,-RA,0.01,WeatherDisplay:10.37,2013-04-03 21:57:00,
2013-04-03 17:03:00,39.1,33.1,30.24,East,95,7.0,12.0,79,0.00,OVC,OVC,0.01,WeatherDisplay:10.37,2013-04-03 22:03:00,
2013-04-03 17:09:00,39.2,33.2,30.24,East,85,9.0,10.0,79,0.00,OVC,OVC,0.01,WeatherDisplay:10.37,2013-04-03 22:09:00,
2013-04-03 17:15:00,39.1,32.8,30.23,East,91,9.0,12.0,78,0.00,OVC,OVC,0.01,WeatherDisplay:10.37,2013-04-03 22:15:00,
2013-04-03 17:21:00,39.2,32.9,30.23,East,84,8.0,12.0,78,0.00,OVC,OVC,0.01,WeatherDisplay:10.37,2013-04-03 22:21:00,
2013-04-03 17:27:00,39.1,32.8,30.24,ENE,73,10.0,10.0,78,0.00,OVC,OVC,0.01,WeatherDisplay:10.37,2013-04-03 22:27:00,
2013-04-03 17:33:00,39.1,33.1,30.24,ENE,75,9.0,13.0,79,0.00,OVC,OVC,0.01,WeatherDisplay:10.37,2013-04-03 22:33:00,
2013-04-03 17:39:00,39.0,33.0,30.23,East,89,6.0,8.0,79,0.00,OVC,OVC,0.01,WeatherDisplay:10.37,2013-04-03 22:39:00,
2013-04-03 17:45:00,39.2,32.6,30.23,East,86,6.0,10.0,77,0.00,OVC,OVC,0.01,WeatherDisplay:10.37,2013-04-03 22:45:00,
2013-04-03 17:51:00,39.4,33.1,30.23,East,91,5.0,8.0,78,0.00,OVC,OVC,0.01,WeatherDisplay:10.37,2013-04-03 22:51:00,
2013-04-03 17:57:00,39.4,33.1,30.23,ENE,74,6.0,9.0,78,0.00,OVC,OVC,0.01,WeatherDisplay:10.37,2013-04-03 22:57:00,
2013-04-03 18:03:00,39.4,33.4,30.24,ENE,70,3.0,9.0,79,0.00,OVC,OVC,0.01,WeatherDisplay:10.37,2013-04-03 23:03:00,
2013-04-03 18:09:00,39.1,33.2,30.24,East,87,8.0,13.0,79,0.00,OVC,OVC,0.01,WeatherDisplay:10.37,2013-04-03 23:09:00,
2013-04-03 18:15:00,39.1,33.1,30.24,East,92,8.0,12.0,79,0.00,OVC,OVC,0.01,WeatherDisplay:10.37,2013-04-03 23:15:00,
2013-04-03 18:21:00,39.1,33.1,30.24,East,94,7.0,9.0,79,0.00,OVC,OVC,0.01,WeatherDisplay:10.37,2013-04-03 23:21:00,
2013-04-03 18:27:00,39.1,32.8,30.24,East,79,10.0,12.0,78,0.00,OVC,OVC,0.01,WeatherDisplay:10.37,2013-04-03 23:27:00,
2013-04-03 18:33:00,39.1,32.8,30.24,East,86,5.0,7.0,78,0.00,OVC,OVC,0.01,WeatherDisplay:10.37,2013-04-03 23:33:00,
2013-04-03 18:39:00,39.1,32.8,30.24,East,84,7.0,8.0,78,0.00,OVC,OVC,0.01,WeatherDisplay:10.37,2013-04-03 23:39:00,
2013-04-03 18:45:00,39.1,32.8,30.24,East,86,7.0,10.0,78,0.00,OVC,OVC,0.01,WeatherDisplay:10.37,2013-04-03 23:45:00,
2013-04-03 18:51:00,38.9,32.6,30.24,East,79,6.0,7.0,78,0.00,OVC,OVC,0.01,WeatherDisplay:10.37,2013-04-03 23:51:00,
2013-04-03 18:57:00,38.7,32.4,30.24,East,80,6.0,9.0,78,0.00,OVC,OVC,0.01,WeatherDisplay:10.37,2013-04-03 23:57:00,
2013-04-03 19:03:00,38.7,32.7,30.25,East,100,6.0,10.0,79,0.00,OVC,OVC,0.01,WeatherDisplay:10.37,2013-04-04 00:03:00,
2013-04-03 19:09:00,38.7,32.7,30.25,ESE,104,7.0,8.0,79,0.00,OVC,OVC,0.01,WeatherDisplay:10.37,2013-04-04 00:09:00,
2013-04-03 19:15:00,38.7,33.0,30.25,East,98,2.0,7.0,80,0.00,OVC,OVC,0.01,WeatherDisplay:10.37,2013-04-04 00:15:00,
2013-04-03 19:21:00,38.7,33.3,30.25,ESE,112,2.0,8.0,81,0.00,OVC,OVC,0.01,WeatherDisplay:10.37,2013-04-04 00:21:00,
2013-04-03 19:27:00,38.7,33.3,30.26,East,95,5.0,6.0,81,0.00,OVC,OVC,0.01,WeatherDisplay:10.37,2013-04-04 00:27:00,
2013-04-03 19:33:00,38.7,33.3,30.26,East,83,5.0,7.0,81,0.00,OVC,OVC,0.01,WeatherDisplay:10.37,2013-04-04 00:33:00,
2013-04-03 19:39:00,38.5,33.1,30.25,ENE,78,7.0,10.0,81,0.00,OVC,OVC,0.01,WeatherDisplay:10.37,2013-04-04 00:39:00,
2013-04-03 19:45:00,38.5,33.4,30.25,East,82,3.0,6.0,82,0.00,OVC,OVC,0.01,WeatherDisplay:10.37,2013-04-04 00:45:00,
2013-04-03 19:51:00,38.5,33.4,30.25,ESE,105,5.0,7.0,82,0.00,OVC,OVC,0.01,WeatherDisplay:10.37,2013-04-04 00:51:00,
2013-04-03 19:57:00,38.5,33.4,30.25,ENE,67,3.0,4.0,82,0.00,OVC,OVC,0.01,WeatherDisplay:10.37,2013-04-04 00:57:00,
2013-04-03 20:03:00,38.5,33.4,30.25,NE,44,6.0,9.0,82,0.00,OVC,OVC,0.01,WeatherDisplay:10.37,2013-04-04 01:03:00,
2013-04-03 20:09:00,38.5,34.0,30.25,East,79,3.0,5.0,84,0.00,OVC,OVC,0.01,WeatherDisplay:10.37,2013-04-04 01:09:00,
2013-04-03 20:15:00,38.5,34.0,30.25,East,90,6.0,9.0,84,0.00,OVC,OVC,0.01,WeatherDisplay:10.37,2013-04-04 01:15:00,
2013-04-03 20:21:00,38.5,34.0,30.25,East,92,7.0,9.0,84,0.00,OVC,OVC,0.01,WeatherDisplay:10.37,2013-04-04 01:21:00,
2013-04-03 20:27:00,38.3,33.9,30.25,East,86,6.0,9.0,84,0.00,OVC,OVC,0.01,WeatherDisplay:10.37,2013-04-04 01:27:00,
2013-04-03 20:33:00,38.3,33.9,30.25,East,81,6.0,8.0,84,0.00,OVC,OVC,0.01,WeatherDisplay:10.37,2013-04-04 01:33:00,
2013-04-03 20:39:00,38.3,34.1,30.25,NE,40,3.0,5.0,85,0.00,OVC,OVC,0.01,WeatherDisplay:10.37,2013-04-04 01:39:00,
2013-04-03 20:45:00,38.3,34.1,30.25,NNE,18,5.0,7.0,85,0.00,OVC,OVC,0.01,WeatherDisplay:10.37,2013-04-04 01:45:00,
2013-04-03 20:51:00,38.3,34.1,30.25,ENE,72,5.0,7.0,85,0.00,OVC,OVC,0.01,WeatherDisplay:10.37,2013-04-04 01:51:00,
2013-04-03 20:57:00,38.2,34.0,30.25,ENE,71,6.0,7.0,85,0.00,OVC,OVC,0.01,WeatherDisplay:10.37,2013-04-04 01:57:00,
2013-04-03 21:03:00,38.2,34.0,30.25,ENE,74,3.0,7.0,85,0.00,OVC,OVC,0.01,WeatherDisplay:10.37,2013-04-04 02:03:00,
2013-04-03 21:09:00,38.2,34.3,30.25,ENE,69,6.0,7.0,86,0.00,OVC,OVC,0.01,WeatherDisplay:10.37,2013-04-04 02:09:00,
2013-04-03 21:15:00,38.0,34.1,30.25,ENE,75,2.0,7.0,86,0.00,OVC,OVC,0.01,WeatherDisplay:10.37,2013-04-04 02:15:00,
2013-04-03 21:21:00,38.0,34.4,30.25,ENE,76,2.0,5.0,87,0.00,OVC,OVC,0.01,WeatherDisplay:10.37,2013-04-04 02:21:00,
2013-04-03 21:27:00,38.0,34.4,30.25,East,100,3.0,7.0,87,0.00,OVC,OVC,0.01,WeatherDisplay:10.37,2013-04-04 02:27:00,
2013-04-03 21:33:00,38.0,34.4,30.25,ENE,70,3.0,5.0,87,0.00,OVC,OVC,0.01,WeatherDisplay:10.37,2013-04-04 02:33:00,
2013-04-03 21:39:00,38.0,34.4,30.25,NE,44,0.0,3.0,87,0.00,OVC,OVC,0.01,WeatherDisplay:10.37,2013-04-04 02:39:00,
2013-04-03 21:45:00,37.8,34.5,30.25,East,87,2.0,5.0,88,0.00,OVC,OVC,0.01,WeatherDisplay:10.37,2013-04-04 02:45:00,
2013-04-03 21:51:00,37.8,34.5,30.26,NE,52,0.0,3.0,88,0.00,OVC,OVC,0.01,WeatherDisplay:10.37,2013-04-04 02:51:00,
2013-04-03 21:57:00,37.8,34.8,30.26,NNE,15,2.0,5.0,89,0.00,OVC,OVC,0.01,WeatherDisplay:10.37,2013-04-04 02:57:00,
2013-04-03 22:03:00,37.8,34.8,30.26,NNE,31,2.0,7.0,89,0.00,OVC,OVC,0.01,WeatherDisplay:10.37,2013-04-04 03:03:00,
2013-04-03 22:09:00,37.8,34.8,30.26,ENE,63,1.0,3.0,89,0.00,OVC,OVC,0.01,WeatherDisplay:10.37,2013-04-04 03:09:00,
2013-04-03 22:15:00,37.8,34.8,30.26,NNW,339,1.0,4.0,89,0.00,OVC,OVC,0.01,WeatherDisplay:10.37,2013-04-04 03:15:00,
2013-04-03 22:21:00,37.8,34.8,30.26,NNW,338,2.0,3.0,89,0.00,OVC,OVC,0.01,WeatherDisplay:10.37,2013-04-04 03:21:00,
2013-04-03 22:27:00,37.8,34.8,30.26,NNW,338,2.0,5.0,89,0.00,OVC,OVC,0.01,WeatherDisplay:10.37,2013-04-04 03:27:00,
2013-04-03 22:33:00,37.8,34.8,30.26,NNW,338,0.0,0.0,89,0.00,OVC,OVC,0.01,WeatherDisplay:10.37,2013-04-04 03:33:00,
2013-04-03 22:39:00,37.8,34.8,30.26,NNW,338,0.0,0.0,89,0.00,OVC,OVC,0.01,WeatherDisplay:10.37,2013-04-04 03:39:00,
2013-04-03 22:45:00,37.8,34.8,30.26,NNW,338,3.0,5.0,89,0.00,OVC,OVC,0.01,WeatherDisplay:10.37,2013-04-04 03:45:00,
2013-04-03 22:51:00,37.6,35.2,30.26,NW,323,5.0,6.0,91,0.00,OVC,OVC,0.01,WeatherDisplay:10.37,2013-04-04 03:51:00,
2013-04-03 22:57:00,37.6,35.2,30.26,West,279,3.0,3.0,91,0.00,OVC,OVC,0.01,WeatherDisplay:10.37,2013-04-04 03:57:00,
2013-04-03 23:00:00,37.6,35.2,30.26,West,270,3.0,3.0,91,0.00,OVC,OVC,0.01,WeatherDisplay:10.37,2013-04-04 04:00:00,
2013-04-03 23:06:00,37.6,35.2,30.26,West,270,3.0,3.0,91,0.00,OVC,OVC,0.01,WeatherDisplay:10.37,2013-04-04 04:06:00,
2013-04-03 23:12:00,37.6,35.2,30.26,West,270,3.0,3.0,91,0.00,OVC,OVC,0.01,WeatherDisplay:10.37,2013-04-04 04:12:00,
2013-04-03 23:18:00,37.6,35.2,30.26,West,270,3.0,3.0,91,0.00,OVC,OVC,0.01,WeatherDisplay:10.37,2013-04-04 04:18:00,
2013-04-03 23:24:00,37.6,35.2,30.26,West,270,3.0,3.0,91,0.00,OVC,OVC,0.01,WeatherDisplay:10.37,2013-04-04 04:24:00,
2013-04-03 23:27:00,37.6,35.2,30.26,West,270,3.0,3.0,91,0.00,OVC,OVC,0.01,WeatherDisplay:10.37,2013-04-04 04:27:00,
2013-04-03 23:33:00,37.6,35.2,30.26,West,270,3.0,3.0,91,0.00,OVC,OVC,0.01,WeatherDisplay:10.37,2013-04-04 04:33:00,
2013-04-03 23:39:00,37.6,34.6,30.25,WNW,297,3.0,4.0,89,0.00,OVC,OVC,0.01,WeatherDisplay:10.37,2013-04-04 04:39:00,
2013-04-03 23:42:00,37.6,34.6,30.25,NW,320,2.0,4.0,89,0.00,OVC,OVC,0.01,WeatherDisplay:10.37,2013-04-04 04:42:00,
2013-04-03 23:48:00,37.6,34.6,30.25,NNW,338,1.0,5.0,89,0.00,OVC,OVC,0.01,WeatherDisplay:10.37,2013-04-04 04:48:00,
2013-04-03 23:54:00,37.6,34.6,30.25,NNW,338,3.0,3.0,89,0.00,OVC,OVC,0.01,WeatherDisplay:10.37,2013-04-04 04:54:00,